Regional Weather Roundup
Issued by NWS Wilmington, NC

Home | Current Version | Previous Version | Text Only | Print | Product List | Glossary On
Versions: 1 2 3 4 5 6 7 8 9 10 11 12 13 14 15 16 17 18 19 20 21 22 23 24 25 26 27 28 29 30 31 32 33 34 35 36 37 38 39 40 41 42 43 44 45 46 47 48 49 50
000
ASUS42 KILM 051813
RWRILM
RWRILM
REGIONAL HOURLY WEATHER ROUNDUP
NATIONAL WEATHER SERVICE WILMINGTON NC
200 PM EDT TUE MAY 05 2015

NOTE: "FAIR" INDICATES FEW OR NO CLOUDS BELOW 12,000 FEET WITH NO
SIGNIFICANT WEATHER AND/OR OBSTRUCTIONS TO VISIBILITY.

...............WFO WILMINGTON COUNTY WARNING AREA...............

......COASTAL NC AND SC COUNTIES......

CITY           SKY/WX    TMP DP  RH WIND       PRES   REMARKS
WILMINGTON     SUNNY     75  52  44 SE10      30.35S
N MYRTLE BEACH SUNNY     75  56  51 SE12      30.34F
MYRTLE BEACH   SUNNY     75  55  50 SE12      30.36F

......INLAND NC AND SC COUNTIES.......

CITY           SKY/WX    TMP DP  RH WIND       PRES   REMARKS
LUMBERTON      SUNNY     81  53  37 VRB3      30.30F
ELIZABETHTOWN  SUNNY     78  48  34 CALM      30.32F
WHITEVILLE     MOSUNNY   78  53  40 NE3       30.31F
FLORENCE       MOSUNNY   80  53  39 SE10      30.31F
DARLINGTON     SUNNY     81  52  36 E5        30.32F

....................REST OF NORTH CAROLINA......................

.........EASTERN NC.........

CITY           SKY/WX    TMP DP  RH WIND       PRES   REMARKS
CAPE HATTERAS  SUNNY     73  56  54 S7        30.36F
JACKSONVILLE   SUNNY     79  48  34 SE9G16    30.34F
MOREHEAD CITY  SUNNY     76  50  40 SE12G17   30.35F
KENANSVILLE    SUNNY     78  48  33 SE5       30.33F
NEW BERN       SUNNY     80  47  31 SE8       30.34F
ELIZABETH CITY SUNNY     79  52  38 SW15G23   30.31F

.........CENTRAL NC.........

CITY           SKY/WX    TMP DP  RH WIND       PRES   REMARKS
RALEIGH DURHAM MOSUNNY   80  58  46 SW10      30.30F
ROCKY MOUNT    SUNNY     81  55  40 S10       30.31F
ROANOKE RAPIDS NOT AVBL
FAYETTEVILLE   SUNNY     80  52  37 MISG      30.30F
HOFFMAN        SUNNY     80  52  38 N5        30.34F

.........WESTERN NC.........

CITY           SKY/WX    TMP DP  RH WIND       PRES   REMARKS
CHARLOTTE      MOSUNNY   79  53  40 VRB7      30.31F
GREENSBORO     MOSUNNY   80  56  43 CALM      30.29F
HICKORY        NOT AVBL
BOONE          NOT AVBL
ASHEVILLE      NOT AVBL

.....................REST OF SOUTH CAROLINA.....................

.........EASTERN SC.........

CITY           SKY/WX    TMP DP  RH WIND       PRES   REMARKS
CHARLESTON     MOSUNNY   78  53  41 SE14G20   30.31F
BEAUFORT MCAS  MOSUNNY   78  56  46 E8G17     30.30F
HILTON HEAD    MOSUNNY   73  59  60 E12G18    30.31F

.........CENTRAL SC.........

CITY           SKY/WX    TMP DP  RH WIND       PRES   REMARKS
COLUMBIA       MOSUNNY   81  52  36 E10       30.30F
ORANGEBURG     MOSUNNY   80  52  37 VRB7      30.31F
SUMTER SHAW    SUNNY     81  54  39 E9        30.30F

.........WESTERN SC.........

CITY           SKY/WX    TMP DP  RH WIND       PRES   REMARKS
GREENVILLE     NOT AVBL
ROCK HILL      SUNNY     79  56  45 SE7       30.32F
ANDERSON       SUNNY     79  54  41 E3        30.30F
CLEMSON        NOT AVBL
GREENWOOD      SUNNY     78  54  43 VRB3      30.32F


...................COASTAL AND OFFSHORE REPORTS..................

................LOCAL PIERS AND NC RESERVE................


STATION/POSITION TIME  SKY/WX   TEMP    WIND        PRES    VSBY
                                AIR SEA DIR/SP/G
                 (UTC)          (F)     (DEG/KT/KT) (MB)    (MI)
JOHNY MRCER PIER 1700            70 70   90/  5/  6 1027.5F
NC RESRV MASNBRO NOT AVBL
OCEAN CREST PIER NOT AVBL
SPRINGMAID  PIER 1700            70 69   50/  9/  9 1027.8F


................COASTAL AND OFFSHORE BUOYS................


STATION/POSITION TIME  SKY/WX   TEMP    WIND        PRES    VSBY
                                AIR SEA DIR/SP/G
                 (UTC)          (F)     (DEG/KT/KT) (MB)    (MI)
DIMNDSHOAL 41025 1750            72 77  160/ 10/ 14 1028.2F
WVE H/P(F/S)=  3/10 WND WVE H/P(F/S)=  2/ 4 SWL H/P/D(F/S/D)=  2/ 70/10

CAPE LOOKOUT     1800            71     130/  8/  8 1027.5F
ONSLOW BAY 41036 NOT AVBL
5 WRITEBCH 41038 1708            71 70  130/  8/ 10 1027.8F
MASONBORO  41110 1719               70                N/A
WVE H/P(F/S)=  3/ 5 WND WVE H/P(F/S)=  3/ 5 SWL H/P/D(F/S/D)=  2/100/12

WILM HARBR 41108 1711               70                N/A
WVE H/P(F/S)=  2/ 6 WND WVE H/P(F/S)=  2/ 6

27WRITEBCH 41037 1700            69 71  130/ 10/ 12   N/A
FRYING PAN 41013 1750            73 72  100/  8/ 10 1028.3F
WVE H/P(F/S)=  3/ 5 WND WVE H/P(F/S)=  2/ 4 SWL H/P/D(F/S/D)=  3/130/ 5

SUNST NRSH 41024 1708            71     130/  8/ 10 1027.6F
CAPRS NRSH 41029 1708            71      60/ 14/ 16 1027.2F
EDISTO     41004 1750            72 73   50/ 14/ 17 1025.7F
WVE H/P(F/S)=  3/ 6 WND WVE H/P(F/S)=  3/ 6 SWL H/P/D(F/S/D)=  2/12



..........OFFSHORE BUOYS BEYOND 100 NM OFFSHORE...........
.....IN A TRIANGLE---HAT TO BERMUDA TO BAHAMAS TO HAT.....


STATION/POSITION TIME  SKY/WX   TEMP    WIND        PRES    VSBY
                                AIR SEA DIR/SP/G
                 (UTC)          (F)     (DEG/KT/KT) (MB)    (MI)
150E HAT   41001 NOT AVBL
W BERMUDA  41048 1750            69 70   80/ 12/ 14 1028.0F
WVE H/P(F/S)=  4/11 WND WVE H/P(F/S)=  2/ 5 SWL H/P/D(F/S/D)=  3/ 20/11

ATLANTIC S 41049 1750            74 77   80/ 17/ 19 1025.6F
WVE H/P(F/S)=  6/ 9 WND WVE H/P(F/S)=  5/ 5 SWL H/P/D(F/S/D)=  3/ 9

E BAHAMAS  41046 1750            80 80  130/ 16/ 17 1020.9F
WVE H/P(F/S)=  6/ 6 WND WVE H/P(F/S)=  5/ 6 SWL H/P/D(F/S/D)=  3/ 10/ 9

NE BAHAMAS 41047 1750            75 78   90/ 19/ 27 1021.7F
WVE H/P(F/S)=  8/ 8 WND WVE H/P(F/S)=  7/ 8 SWL H/P/D(F/S/D)=  3/ 40/10

120E CANVRL41010 1720            75 78   80/ 17/ 21 1021.8S

END



USA.gov is the U.S. government's official web portal to all federal, state and local government web resources and services.